Weather in Kostiantynivka

Ukraine / Zaporizhia Region     47°33′25″N   36°17′24″E
temp.,
°C
wind,
m/s
gust,
m/s
humid.,
%
clouds,
%
prec.,
mm/h
press.,
hPa
HPBL,
m
2 march, tue
tue223:000nnw228218 0.0 102929
02:00−1wnw228214 0.0 102939
05:00−1w238711 0.0 102877
08:00+1w46767 0.0 1028328
11:00+4w796037 0.0 1026924
14:00+4w7106353 0.0 1024913
17:00+3wsw71373100 0.0 1021773
20:00+3wsw8157789 0.0 1020737
3 march, wed
wed323:00+2nw61186100 0.1 1018752
02:00+1wnw61197100 0.9 1018616
05:00+1nnw81291100 0.2 1019879
08:00+1nnw7108080 0.3 1022800
11:00+4nnw696366 0.0 10231250
14:00+5nw7105375 0.0 10241567
17:00+4nw485956 0.0 1024321
20:00+1wnw347028 0.0 102671
4 march, thu
thu423:000w34770 0.0 102672
02:000wsw36780 0.0 1025113
05:00−1sw48810 0.0 1024169
08:00+2wsw69690 0.0 1023442
11:00+7wsw810550 0.0 10201118
14:00+8sw811570 0.0 10181246
17:00+7sw7126828 0.0 1016671
20:00+4sw8157652 0.0 1016571
5 march, fri
fri523:00+3sw8168277 0.0 1015563
02:00+2sw7158848 0.0 1014528
05:00+2sw6139254 0.0 1014428
08:00+3sw6109074 0.0 1014423
11:00+7sw6980100 0.0 1014563
14:00+9ssw71069100 0.0 1012853
17:00+7ssw61172100 0.0 1011428
20:00+5ssw6118191 0.0 1011278
6 march, sat
sat623:00+4sw6129052 0.0 1011292
02:00+4wsw489665 0.0 1011289
05:00+4w3598100 0.0 1012189
08:00+2nnw6896100 0.4 1014316
11:00+1n6894100 0.6 1015480
14:00+3n5763100 1.0 10161104
17:00+2nnw5855100 0.0 10171087
20:000nnw61165100 0.0 1020796